TimeEST,TemperatureF,Dew PointF,Humidity,Sea Level PressureIn,VisibilityMPH,Wind Direction,Wind SpeedMPH,Gust SpeedMPH,PrecipitationIn,Events,Conditions,WindDirDegrees,DateUTC
12:53 AM,50.0,46.9,89,30.41,10.0,Calm,Calm,-,N/A,,Clear,0,2013-01-10 05:53:00
1:53 AM,51.1,46.9,86,30.43,10.0,SSW,3.5,-,N/A,,Clear,210,2013-01-10 06:53:00
2:53 AM,48.0,45.0,89,30.43,9.0,Calm,Calm,-,N/A,,Clear,0,2013-01-10 07:53:00
3:53 AM,48.9,46.0,90,30.43,10.0,Calm,Calm,-,N/A,,Clear,0,2013-01-10 08:53:00
4:53 AM,46.9,45.0,93,30.41,9.0,Calm,Calm,-,N/A,,Clear,0,2013-01-10 09:53:00
5:53 AM,48.0,44.1,86,30.45,10.0,North,3.5,-,N/A,,Clear,360,2013-01-10 10:53:00
6:53 AM,48.0,44.1,86,30.48,10.0,NNE,3.5,-,N/A,,Clear,30,2013-01-10 11:53:00
7:53 AM,51.1,44.1,77,30.51,10.0,Calm,Calm,-,N/A,,Clear,0,2013-01-10 12:53:00
8:53 AM,52.0,45.0,77,30.54,10.0,NE,4.6,-,N/A,,Clear,40,2013-01-10 13:53:00
10:53 AM,60.1,44.1,55,30.54,10.0,NE,8.1,-,N/A,,Clear,50,2013-01-10 15:53:00
11:53 AM,62.1,41.0,46,30.50,10.0,ENE,5.8,-,N/A,,Clear,70,2013-01-10 16:53:00
12:53 PM,64.0,41.0,43,30.47,10.0,Variable,5.8,-,N/A,,Clear,0,2013-01-10 17:53:00
1:53 PM,64.9,39.0,39,30.46,10.0,Variable,4.6,-,N/A,,Clear,0,2013-01-10 18:53:00
2:53 PM,64.0,37.0,37,30.48,10.0,NE,9.2,-,N/A,,Clear,40,2013-01-10 19:53:00
3:53 PM,60.1,36.0,41,30.48,10.0,Calm,Calm,-,N/A,,Clear,0,2013-01-10 20:53:00
4:53 PM,55.0,39.0,55,30.48,10.0,Calm,Calm,-,N/A,,Clear,0,2013-01-10 21:53:00
5:53 PM,53.1,35.1,50,30.48,10.0,Calm,Calm,-,N/A,,Clear,0,2013-01-10 22:53:00
6:53 PM,46.0,37.0,71,30.49,10.0,Calm,Calm,-,N/A,,Clear,0,2013-01-10 23:53:00
7:53 PM,46.9,36.0,66,30.49,10.0,East,3.5,-,N/A,,Clear,100,2013-01-11 00:53:00
8:53 PM,48.9,34.0,56,30.49,10.0,Variable,3.5,-,N/A,,Clear,0,2013-01-11 01:53:00
9:53 PM,46.9,32.0,56,30.49,10.0,Calm,Calm,-,N/A,,Clear,0,2013-01-11 02:53:00
10:53 PM,45.0,30.9,58,30.48,10.0,East,4.6,-,N/A,,Clear,80,2013-01-11 03:53:00